Stations météo

réclame
Mon MeteoGroup
St-Auban-Sur-Durance, France (7588): Température de l'air & dewpoint: 12.06.2018 13:00:00 - 18.06.2018 13:00:00 (CEST)St-Auban-Sur-Durance, France (7588): Température de l'air 5cm: 12.06.2018 13:00:00 - 18.06.2018 13:00:00 (CEST)St-Auban-Sur-Durance, France (7588): Température de l'air -20cm: 12.06.2018 13:00:00 - 18.06.2018 13:00:00 (CEST)St-Auban-Sur-Durance, France (7588): Vitesse du vent & gusts: 12.06.2018 13:00:00 - 18.06.2018 13:00:00 (CEST)St-Auban-Sur-Durance, France (7588): Direction du vent: 12.06.2018 13:00:00 - 18.06.2018 13:00:00 (CEST)St-Auban-Sur-Durance, France (7588): reduced air pressure: 12.06.2018 13:00:00 - 18.06.2018 13:00:00 (CEST)St-Auban-Sur-Durance, France (7588): visibility: 12.06.2018 13:00:00 - 18.06.2018 13:00:00 (CEST)St-Auban-Sur-Durance, France (7588): Ensoleillement: 12.06.2018 13:00:00 - 18.06.2018 13:00:00 (CEST)St-Auban-Sur-Durance, France (7588): Quantités de précipitations: 12.06.2018 13:00:00 - 18.06.2018 13:00:00 (CEST)
Date & Time tt [°C] td [°C] tt 5cm [°C] tt -20cm [°C] ff [km/h] ff [knt] fx [km/h] fx [knt] dd ppp [hPa] vv [km] sd [min] rr [mm]
18.06.2018 13:00:00 25,7 13,5 30,8 21,6 21 11 38 20 N 1016,1 20 60 0,0
18.06.2018 12:00:00 24,3 13,2 28,7 21,4 20 11 37 20 N 1016,3 20 60 0,0
18.06.2018 11:00:00 22,5 12,4 27,0 21,5 21 11 41 22 NNE 1016,4 20 60 0,0
18.06.2018 10:00:00 21,2 12,1 23,9 21,5 21 11 39 21 NNE 1016,7 20 60 0,0
18.06.2018 09:00:00 19,6 11,6 21,4 21,7 17 9 36 19 NE 1017,1 20 60 0,0
18.06.2018 08:00:00 18,2 11,3 17,8 21,8 18 10 36 20 NE 1016,8 20 60 0,0
18.06.2018 07:00:00 17,3 10,9 16,6 22,1 16 9 34 18 NNE 1016,7 20 31 0,0
18.06.2018 06:00:00 16,7 10,8 16,6 22,3 18 10 42 23 NNE 1016,7 20 0 0,0
18.06.2018 05:00:00 17,0 10,8 16,9 22,5 18 10 43 23 NNE 1015,9 20 0 0,0
18.06.2018 04:00:00 17,5 10,8 17,2 22,8 16 9 36 19 NNE 1015,8 20 0 0,0
18.06.2018 03:00:00 17,8 11,1 17,6 23,0 16 9 45 24 NNE 1015,9 20 0 0,0
18.06.2018 02:00:00 18,0 11,1 17,9 23,2 20 11 42 23 N 1015,6 20 0 0,0
18.06.2018 01:00:00 18,5 11,3 18,4 23,4 22 12 40 22 N 1015,8 20 0 0,0
18.06.2018 00:00:00 19,0 11,6 19,0 23,6 24 13 49 26 N 1015,7 20 0 0,0
17.06.2018 23:00:00 19,9 12,2 19,6 23,8 22 12 47 26 NNE 1015,7 20 0 0,0
17.06.2018 22:00:00 20,4 13,1 20,3 23,9 29 16 47 26 N 1014,9 20 0 0,0
17.06.2018 21:00:00 22,2 13,8 22,1 24,0 23 12 35 19 N 1014,0 20 27 0,0
17.06.2018 20:00:00 23,0 15,1 23,4 23,9 21 11 34 18 N 1013,6 20 4 0,0
17.06.2018 19:00:00 22,0 19,0 19,5 23,9 3 2 41 22 ESE 1013,3 20 0 0,4
17.06.2018 18:00:00 21,3 16,3 20,0 23,6 27 15 55 30 NNW 1013,6 6 0 3,3
17.06.2018 17:00:00 26,7 16,0 28,7 23,3 19 11 30 16 WSW 1012,3 20 35 0,0
17.06.2018 16:00:00 27,3 15,0 30,7 22,9 16 8 27 15 SSW 1012,4 20 49 0,0
17.06.2018 15:00:00 27,9 16,2 30,7 22,5 14 8 22 12 SW 1012,3 20 53 0,0
17.06.2018 14:00:00 26,8 15,2 34,4 22,1 8 4 20 11 ENE 1013,0 20 60 0,0
17.06.2018 13:00:00 26,2 14,3 32,6 21,9 13 7 26 14 NE 1013,3 20 60 0,0
17.06.2018 12:00:00 25,4 14,2 31,5 21,7 15 8 34 19 NNE 1013,6 20 60 0,0
17.06.2018 11:00:00 23,9 14,3 28,5 21,6 19 10 38 20 N 1014,1 20 60 0,0
17.06.2018 10:00:00 22,2 14,1 25,4 21,7 17 9 34 18 N 1014,4 20 60 0,0
17.06.2018 09:00:00 20,6 13,8 22,6 21,8 18 10 33 18 NNE 1014,4 20 60 0,0
17.06.2018 08:00:00 18,8 13,4 17,7 22,0 7 4 17 9 ENE 1014,6 20 60 0,0
17.06.2018 07:00:00 17,1 13,2 16,3 22,2 10 5 25 14 E 1014,5 20 31 0,0
17.06.2018 06:00:00 16,4 13,1 15,9 22,3 7 4 22 12 ENE 1014,6 20 0 0,0
17.06.2018 05:00:00 16,1 13,4 15,8 22,5 6 3 25 14 E 1014,1 20 0 0,0
17.06.2018 04:00:00 17,2 13,5 16,7 22,7 10 6 21 11 NE 1013,9 20 0 0,0
17.06.2018 03:00:00 17,3 14,0 16,3 22,9 6 3 16 9 ENE 1013,6 20 0 0,0
17.06.2018 02:00:00 16,5 14,7 15,6 23,0 7 4 17 9 E 1014,0 20 0 0,0
17.06.2018 01:00:00 15,8 15,0 15,5 23,2 6 3 11 6 ENE 1014,4 15 0 0,0
17.06.2018 00:00:00 16,4 15,9 16,8 23,3 8 4 11 6 ENE 1014,2 12 0 0,0
16.06.2018 23:00:00 17,3 16,5 17,4 23,4 5 3 10 6 NE 1013,9 20 0 0,0
16.06.2018 22:00:00 18,4 17,2 18,4 23,5 6 4 12 6 NE 1013,6 19 0 0,0
16.06.2018 21:00:00 19,5 17,8 20,4 23,5 7 4 13 7 NNE 1013,1 20 56 0,0
16.06.2018 20:00:00 19,5 17,3 20,2 23,4 5 3 20 11 E 1012,8 20 1 0,2
16.06.2018 19:00:00 21,2 15,9 23,2 23,3 6 3 31 17 NNE 1012,4 20 14 0,0
16.06.2018 18:00:00 24,9 14,4 26,5 23,1 24 13 36 19 SSW 1010,9 20 25 0,0
16.06.2018 17:00:00 24,7 15,3 26,6 22,9 19 10 39 21 S 1010,8 20 41 0,0
16.06.2018 16:00:00 24,4 14,8 - - 31 17 42 23 W 1011,1 20 - 0,0
16.06.2018 15:00:00 26,9 15,0 33,3 22,2 15 8 26 14 SSW 1010,7 20 60 0,0
16.06.2018 14:00:00 26,3 14,1 29,4 21,8 12 7 25 14 SSW 1011,0 20 45 0,0
16.06.2018 13:00:00 26,3 13,1 31,9 21,5 6 3 17 9 SW 1011,4 20 47 0,0
16.06.2018 12:00:00 25,2 14,0 31,4 21,3 10 5 21 12 NNE 1011,8 20 60 0,0
16.06.2018 11:00:00 23,0 14,0 27,5 21,3 13 7 26 14 NE 1012,2 20 53 0,0
16.06.2018 10:00:00 20,8 13,2 20,7 21,3 14 8 27 14 NNE 1012,9 20 31 0,0
16.06.2018 09:00:00 18,1 12,5 20,0 21,4 16 9 31 17 NNE 1013,7 20 9 0,0
16.06.2018 08:00:00 17,8 12,5 16,9 21,6 13 7 23 12 NE 1013,3 20 41 0,0
16.06.2018 07:00:00 16,3 12,1 16,7 21,8 11 6 23 13 NE 1013,3 20 0 0,0
16.06.2018 06:00:00 17,0 11,9 16,8 21,9 8 4 24 13 NE 1013,0 20 0 0,0
16.06.2018 05:00:00 17,4 11,9 16,8 22,1 10 6 23 12 NE 1012,5 20 0 0,0
16.06.2018 04:00:00 17,1 12,0 17,0 22,3 11 6 23 13 NE 1012,5 20 0 0,0
16.06.2018 03:00:00 17,6 11,8 17,3 22,4 12 6 26 14 NE 1012,4 20 0 0,0
16.06.2018 02:00:00 18,1 11,9 18,1 22,6 13 7 23 12 NNE 1012,4 20 0 0,0
16.06.2018 01:00:00 18,7 11,7 18,1 22,7 10 5 19 10 NE 1012,3 20 0 0,0
16.06.2018 00:00:00 20,1 11,6 19,7 22,9 6 3 19 11 NE 1011,8 20 0 0,0
15.06.2018 23:00:00 19,9 12,6 18,0 23,0 5 3 10 6 ENE 1011,6 20 0 0,0
15.06.2018 22:00:00 19,7 14,7 19,2 23,0 0 0 13 7 N 1011,2 20 0 0,0
15.06.2018 21:00:00 22,4 14,8 22,2 23,0 10 5 13 7 W 1010,2 20 26 0,0
15.06.2018 20:00:00 24,6 15,2 27,0 22,9 4 2 15 8 WSW 1009,5 20 51 0,0
15.06.2018 19:00:00 24,2 14,6 22,0 22,8 4 2 13 7 SSW 1009,6 20 14 0,0
15.06.2018 18:00:00 22,9 14,2 23,8 22,6 12 6 28 15 SW 1009,9 20 0 0,0
15.06.2018 17:00:00 23,6 14,3 25,1 22,3 17 9 28 15 WNW 1009,8 20 0 0,0
15.06.2018 16:00:00 26,2 11,9 28,1 21,8 14 8 27 15 SW 1009,3 20 45 0,0
15.06.2018 15:00:00 26,4 12,1 33,9 21,4 9 5 18 10 SSW 1009,4 20 60 0,0
15.06.2018 14:00:00 25,7 13,5 31,3 21,1 8 5 16 9 SW 1010,0 20 48 0,0
15.06.2018 13:00:00 25,1 12,3 31,5 20,8 4 2 14 7 SW 1010,5 20 53 0,0
15.06.2018 12:00:00 24,0 13,5 29,6 20,6 9 5 28 15 NE 1011,0 20 60 0,0
15.06.2018 11:00:00 21,8 12,6 26,7 20,6 13 7 31 17 NNE 1011,5 20 60 0,0
15.06.2018 10:00:00 20,0 11,5 20,5 20,7 18 10 40 21 NNE 1012,0 20 44 0,0
15.06.2018 09:00:00 17,6 10,9 18,8 20,8 18 10 39 21 NNE 1012,1 20 1 0,0
15.06.2018 08:00:00 17,1 10,7 17,6 20,9 16 9 34 19 NE 1011,8 20 49 0,0
15.06.2018 07:00:00 16,4 10,9 16,3 21,1 15 8 29 16 NE 1011,5 20 43 0,0
15.06.2018 06:00:00 16,4 10,0 16,4 21,3 14 8 39 21 NE 1011,3 20 0 0,0
15.06.2018 05:00:00 16,7 10,1 16,9 21,5 18 10 43 23 NE 1010,6 20 0 0,0
15.06.2018 04:00:00 17,1 10,2 17,0 21,6 14 8 35 19 NE 1010,5 20 0 0,0
15.06.2018 03:00:00 17,3 10,2 17,4 21,8 16 9 38 21 NNE 1010,6 20 0 0,0
15.06.2018 02:00:00 17,7 10,3 17,8 22,0 16 9 38 20 NNE 1010,7 20 0 0,0
15.06.2018 01:00:00 18,0 10,4 18,1 22,1 18 10 37 20 NNE 1010,9 20 0 0,0
15.06.2018 00:00:00 18,3 10,1 18,3 22,3 19 10 39 21 NNE 1010,9 20 0 0,0
14.06.2018 23:00:00 18,8 10,1 18,7 22,4 20 11 37 20 N 1011,2 20 0 0,0
14.06.2018 22:00:00 19,7 9,8 19,6 22,5 19 10 40 21 NNE 1010,3 20 0 0,0
14.06.2018 21:00:00 20,8 10,0 21,0 22,5 26 14 37 20 N 1009,2 20 24 0,0
14.06.2018 20:00:00 22,8 10,2 25,6 22,4 16 9 31 17 N 1008,3 20 60 0,0
14.06.2018 19:00:00 24,3 10,9 24,9 22,3 16 9 29 16 N 1007,6 20 46 0,0
14.06.2018 18:00:00 23,6 11,0 25,0 22,1 16 8 29 15 N 1007,7 20 0 0,0
14.06.2018 17:00:00 24,0 12,0 25,8 21,7 13 7 32 17 NNW 1007,5 20 3 0,0
14.06.2018 16:00:00 25,2 12,8 30,8 21,3 12 6 23 12 N 1007,3 20 46 0,0
14.06.2018 15:00:00 24,8 12,4 32,3 20,9 11 6 26 14 NNE 1007,6 20 60 0,0
14.06.2018 14:00:00 23,7 12,0 30,7 20,5 16 9 36 19 N 1008,2 20 60 0,0
14.06.2018 13:00:00 22,9 11,6 29,2 20,2 23 12 38 21 N 1008,7 20 60 0,0
14.06.2018 12:00:00 21,4 10,2 27,8 20,1 21 12 37 20 N 1009,2 20 60 0,0
14.06.2018 11:00:00 20,2 10,3 25,2 20,1 18 10 47 25 N 1009,2 20 60 0,0
14.06.2018 10:00:00 19,1 9,6 23,3 20,1 22 12 49 26 N 1009,5 20 60 0,0
14.06.2018 09:00:00 18,1 9,4 20,0 20,3 19 11 45 24 NNE 1009,6 20 60 0,0
14.06.2018 08:00:00 16,3 9,2 15,8 20,5 13 7 37 20 NE 1009,7 20 60 0,0
14.06.2018 07:00:00 15,2 8,7 14,7 20,6 13 7 38 20 NE 1009,4 20 32 0,0
14.06.2018 06:00:00 14,7 8,6 14,6 20,8 15 8 35 19 NNE 1009,3 20 0 0,0
14.06.2018 05:00:00 14,8 8,7 14,8 21,0 16 9 36 19 NNE 1009,1 20 0 0,0
14.06.2018 04:00:00 15,4 8,8 15,3 21,3 17 9 35 19 NNE 1008,9 20 0 0,0
14.06.2018 03:00:00 15,5 8,7 15,6 21,4 19 10 45 24 NNE 1008,8 20 0 0,0
14.06.2018 02:00:00 16,0 9,0 15,9 21,6 19 11 44 24 NNE 1008,6 20 0 0,0
14.06.2018 01:00:00 16,3 9,0 16,3 21,8 23 12 49 26 NNE 1008,7 20 0 0,0
14.06.2018 00:00:00 16,6 9,3 16,5 22,0 19 10 45 24 NNE 1008,2 20 0 0,0
13.06.2018 23:00:00 16,8 9,5 16,9 22,2 23 13 54 29 N 1008,2 20 0 0,0
13.06.2018 22:00:00 17,6 9,5 17,9 22,3 31 17 50 27 N 1007,4 20 0 0,0
13.06.2018 21:00:00 18,1 10,0 18,6 22,3 19 10 42 23 N 1007,4 20 23 0,0
13.06.2018 20:00:00 19,0 10,0 19,9 22,3 24 13 60 33 N 1006,8 20 38 0,0
13.06.2018 19:00:00 20,2 10,3 22,4 22,3 33 18 62 34 N 1006,0 20 55 0,0
13.06.2018 18:00:00 20,6 11,2 22,6 22,2 32 17 50 27 N 1005,5 20 23 0,0
13.06.2018 17:00:00 21,3 11,9 24,6 22,0 24 13 49 26 N 1005,3 20 1 0,0
13.06.2018 16:00:00 21,2 11,5 25,2 21,7 25 14 50 27 N 1005,0 20 55 0,0
13.06.2018 15:00:00 21,7 12,5 25,5 21,5 25 13 50 27 N 1004,7 20 32 0,0
13.06.2018 14:00:00 22,3 12,0 27,4 21,3 27 15 54 29 N 1004,4 20 47 0,0
13.06.2018 13:00:00 21,9 11,9 25,6 21,2 29 16 47 26 N 1004,1 20 30 0,0
13.06.2018 12:00:00 22,3 13,1 26,8 21,0 29 16 49 26 N 1004,0 20 60 0,0
13.06.2018 11:00:00 20,7 14,1 23,9 21,0 22 12 45 24 N 1004,1 20 60 0,0
13.06.2018 10:00:00 18,6 12,8 21,3 21,1 19 10 41 22 NNE 1004,9 20 60 0,0
13.06.2018 09:00:00 16,1 13,4 15,9 21,3 12 6 26 14 NNE 1005,7 20 9 0,0
13.06.2018 08:00:00 14,6 12,8 14,1 21,4 16 9 35 19 N 1006,5 20 0 0,0
13.06.2018 07:00:00 14,1 12,3 13,9 21,6 21 11 35 19 NNE 1006,6 20 0 1,0
13.06.2018 06:00:00 14,5 11,6 14,6 21,8 10 5 27 14 NNE 1006,6 20 0 0,0
13.06.2018 05:00:00 14,1 12,1 13,8 22,0 4 2 17 9 E 1007,0 20 0 0,0
13.06.2018 04:00:00 13,7 12,1 13,5 22,2 9 5 16 9 ESE 1007,4 20 0 0,0
13.06.2018 03:00:00 13,3 12,0 13,5 22,4 5 3 9 5 E 1008,1 20 0 0,0
13.06.2018 02:00:00 14,6 12,3 14,1 22,5 4 2 8 4 ESE 1008,4 20 0 0,0
13.06.2018 01:00:00 14,6 12,1 14,4 22,7 3 2 21 11 NNE 1008,5 20 0 0,0
13.06.2018 00:00:00 15,4 12,3 15,6 22,9 11 6 21 12 NE 1008,6 20 0 0,0
12.06.2018 23:00:00 15,9 12,8 16,2 23,0 9 5 22 12 NE 1009,0 20 0 0,0
12.06.2018 22:00:00 16,1 12,1 16,8 23,1 11 6 21 12 ESE 1009,1 20 0 0,0
12.06.2018 21:00:00 17,7 12,4 18,5 23,1 12 7 31 17 N 1008,6 20 7 0,0
12.06.2018 20:00:00 21,3 13,0 22,3 23,0 12 7 36 19 WSW 1007,5 20 25 0,0
12.06.2018 19:00:00 21,5 13,7 22,7 23,0 22 12 33 18 SW 1006,3 20 2 0,0
12.06.2018 18:00:00 22,0 14,4 23,6 22,7 24 13 37 20 SSW 1005,8 20 28 0,0
12.06.2018 17:00:00 24,5 13,1 26,9 22,5 19 11 38 20 SW 1005,9 20 49 0,0
12.06.2018 16:00:00 24,0 13,2 25,2 22,2 19 10 37 20 WSW 1006,0 20 16 0,0
12.06.2018 15:00:00 24,4 13,0 26,6 21,9 16 9 37 20 WSW 1005,8 20 45 0,0
12.06.2018 14:00:00 22,9 15,7 25,6 21,6 21 11 39 21 SW 1006,4 20 47 0,0
12.06.2018 13:00:00 23,6 16,1 30,7 21,4 18 10 26 14 SSW 1006,4 20 60 0,0

tt = Température de l'air
td = dewpoint
tt 5cm = Température de l'air 5cm
tt -20cm = Température de l'air -20cm
ff = Vitesse du vent
fx = gusts
dd = Direction du vent
ppp = reduced air pressure
vv = visibility
sd = Ensoleillement
rr = Quantités de précipitations

stations d'obs. à proximité